sat.trackr.live / text

‹ back to catalog

HULIANWANG DIGUI-138

NORAD 67436 · 2026-007B

PAYLOAD ACTIVE UNKNOWN

§ Identity

Operator
Country
PRC
Launch date
2026-01-13
Launch site
WSC
Launch vehicle
Mass (kg)
RCS (m²)

External: N2YO · Heavens-Above · Gunter

§ Orbital elements

Epoch: 2026-05-25T02:13:06.714048Z

Period
108.33 min
Inclination
50.0038°
Eccentricity
0.0000898
Mean motion
13.29324383 rev/d
Perigee alt
1,148.6 km
Apogee alt
1,150.0 km
Semi-major
7,527.4 km
B*
8.1041e-5
RAAN
168.7959°
Arg perigee
281.5386°
Mean anomaly
78.5385°
Rev number
1,771

§ Raw data

HULIANWANG DIGUI-1381 67436U 26007B   26145.09243882 -.00000086  00000+0  81041-4 0  99972 67436  50.0038 168.7959 0000898 281.5386  78.5385 13.29324383 17717

JSON: /api/v1/satellites/67436 · /tle

For live sub-satellite position, see the globe view (requires WebGL).

§ Visibility from observer

Set your observer location to see the next 7 days of passes ≥ 10°. The values pass through the URL so the page stays shareable.

No JS? Fill the form by hand. The geolocation button needs JavaScript.